• Join FlightAware (Why Join?)
  • Login
  • US Flag 
05:49PM EDT


 

Airport Tracker/Info


-or-


 

Live Flight TrackerFlight Track Log ✈ JBU1329 ✈ 05-Jun-2013 ✈ KBOS - KBWI

Flight Track Log - Related Links

Times and Time Zones

All times are in EDT time to prevent confusion due to time zone crossing. See the JBU1329 flight status page for this flight to view local times or setup timezone preferences in your user account.

Time Position Orientation Groundspeed Altitude Reporting Facility
EDT Latitude Longitude Course Direction KTS MPH feet Rate Location/Type
09:22AM 42.3500 -71.0167 262° West 160 184 700  Level KA90
09:24AM 42.2558 -71.1864 233° Southwest 252 290 8,000 2,880 Climbing Boston Center
09:25AM 42.2712 -70.7599 228° Southwest  Level FlightAware Approximate
09:25AM 42.2339 -71.2567 247° West 260 299 10,800  Level Boston Center
09:26AM 42.2092 -70.8729 240° Southwest  Level FlightAware Approximate
09:26AM 42.1997 -71.3892 251° West 297 342 13,200  Level Boston Center
09:27AM 42.1796 -71.0045 262° West  Level FlightAware Approximate
09:27AM 42.1797 -71.5017 257° West 335 386 15,700  Level Boston Center
09:28AM 42.1536 -71.6281 254° West 352 405 18,300 2,100 Climbing Boston Center
09:29AM 42.1356 -71.7375 257° West 368 423 19,900 1,980 Climbing Boston Center
09:30AM 42.1011 -71.9000 254° West 375 432 22,300 2,040 Climbing Boston Center
09:31AM 42.0725 -72.0458 255° West 386 444 24,000 1,800 Climbing Boston Center
09:32AM 42.0417 -72.1914 254° West 396 456 25,900 1,680 Climbing Boston Center
09:33AM 42.0022 -72.3283 249° West 396 456 27,400 1,320 Climbing Boston Center
09:34AM 41.9294 -72.4569 233° Southwest 411 473 28,600 1,260 Climbing Boston Center
09:35AM 41.8583 -72.5850 233° Southwest 427 491 30,000 1,380 Climbing Boston Center
09:37AM 41.7875 -72.7075 232° Southwest 434 499 31,700 900 Climbing Boston Center
09:38AM 41.6994 -72.8600 232° Southwest 434 499 32,000 60 Climbing Boston Center
09:40AM 41.5592 -73.1058 233° Southwest 425 489 32,000  Level New York Center
09:41AM 41.4878 -73.2333 233° Southwest 430 495 32,000  Level New York Center
09:42AM 41.4144 -73.3578 232° Southwest 430 495 32,000  Level New York Center
09:43AM 41.3367 -73.4847 231° Southwest 435 501 32,000  Level New York Center
09:44AM 41.2647 -73.6142 234° Southwest 435 501 32,000  Level New York Center
09:45AM 41.1889 -73.7378 231° Southwest 435 501 32,000  Level New York Center
09:46AM 41.1169 -73.8639 233° Southwest 435 501 32,000  Level New York Center
09:47AM 41.0406 -73.9897 231° Southwest 435 501 32,000 -480 Level New York Center
09:48AM 40.9664 -74.1125 231° Southwest 435 501 31,100 -1,080 Descending New York Center
09:49AM 40.8967 -74.2244 231° Southwest 435 501 29,900 -1,320 Descending New York Center
09:50AM 40.8200 -74.3467 230° Southwest 435 501 28,500 -840 Descending New York Center
09:52AM 40.6703 -74.5989 232° Southwest 435 501 27,400 -720 Descending New York Center
09:53AM 40.5956 -74.7231 232° Southwest 440 506 26,400 -1,140 Descending New York Center
09:54AM 40.5056 -74.8517 227° Southwest 440 506 25,200 -1,140 Descending New York Center
09:55AM 40.4289 -74.9644 228° Southwest 435 501 24,200 -1,020 Descending New York Center
09:56AM 40.3497 -75.0739 227° Southwest 423 487 23,200 -840 Descending New York Center
09:57AM 40.2728 -75.1806 227° Southwest 418 481 22,600 -900 Descending New York Center
09:58AM 40.1981 -75.2847 227° Southwest 413 475 21,500 -2,220 Descending New York Center
09:59AM 40.1231 -75.3883 227° Southwest 407 468 18,300 -1,800 Descending New York Center
10:00AM 40.0592 -75.4764 227° Southwest 399 459 18,000 -180 Descending New York Center
10:01AM 39.9900 -75.5908 232° Southwest 378 435 18,000  Level New York Center
10:02AM 39.9339 -75.6900 234° Southwest 378 435 18,000 -180 Level New York Center
10:03AM 39.8661 -75.8094 234° Southwest 378 435 17,700 -1,440 Descending New York Center
10:05AM 39.7500 -76.0000 232° Southwest 343 395 13,800 -1,920 Descending Potomac TRACON
10:06AM 39.7000 -76.1000 237° Southwest 318 366 12,100 -1,200 Descending Potomac TRACON
10:07AM 39.6500 -76.1833 232° Southwest 290 334 11,400 -1,260 Descending Potomac TRACON
10:08AM 39.6000 -76.2667 232° Southwest 287 330 9,600 -1,740 Descending Potomac TRACON
10:09AM 39.5500 -76.3333 226° Southwest 284 327 7,900 -1,680 Descending Potomac TRACON
10:10AM 39.4833 -76.4000 218° Southwest 282 325 6,300 -1,500 Descending Potomac TRACON
10:11AM 39.4000 -76.4333 197° South 272 313 5,000 -780 Descending Potomac TRACON
10:12AM 39.3333 -76.4333 180° South 265 305 4,800 -900 Descending Potomac TRACON
10:13AM 39.2667 -76.4500 191° South 261 300 3,200 -1,440 Descending Potomac TRACON
10:14AM 39.2000 -76.4833 201° Southwest 254 292 2,000 -660 Descending Potomac TRACON
10:15AM 39.1500 -76.5333 218° Southwest 219 252 1,900 -120 Descending Potomac TRACON